Location: Brno
(49.2000°N, 16.6333°E)
Time: 01:30:35
(UTC+01:00)

ISS - Pass Details

Date: 24 January 2019
Orbit: 403 x 411 km, 51.6° (Epoch: 22 February)

Event Time Altitude Azimuth Distance (km) Brightness Sun altitude
Rises 19:17:46 0° 244° (WSW) 2,330 1.0 -26.1°
Reaches altitude 10° 19:19:50 10° 242° (WSW) 1,473 -0.2 -26.4°
Enters shadow 19:21:04 21° 240° (WSW) 984 -1.3 -26.6°
